TimeMDT,TemperatureF,Dew PointF,Humidity,Sea Level PressureIn,VisibilityMPH,Wind Direction,Wind SpeedMPH,Gust SpeedMPH,PrecipitationIn,Events,Conditions,WindDirDegrees,DateUTC
12:35 AM,37.4,24.8,60,30.31,10.0,Calm,Calm,-,N/A,,Clear,0,2013-05-05 06:35:00
12:55 AM,37.4,24.8,60,30.31,10.0,Calm,Calm,-,N/A,,Clear,0,2013-05-05 06:55:00
1:15 AM,35.6,24.8,65,30.31,10.0,Calm,Calm,-,N/A,,Clear,0,2013-05-05 07:15:00
1:55 AM,35.6,23.0,60,30.30,10.0,Calm,Calm,-,N/A,,Clear,0,2013-05-05 07:55:00
2:15 AM,33.8,23.0,65,30.30,10.0,Calm,Calm,-,N/A,,Clear,0,2013-05-05 08:15:00
2:35 AM,35.6,24.8,65,30.30,10.0,Calm,Calm,-,N/A,,Clear,0,2013-05-05 08:35:00
2:55 AM,33.8,24.8,70,30.30,10.0,Calm,Calm,-,N/A,,Clear,0,2013-05-05 08:55:00
3:15 AM,33.8,24.8,70,30.30,10.0,Calm,Calm,-,N/A,,Clear,0,2013-05-05 09:15:00
3:35 AM,33.8,21.2,60,30.30,10.0,Calm,Calm,-,N/A,,Clear,0,2013-05-05 09:35:00
3:55 AM,33.8,23.0,65,30.30,10.0,Calm,Calm,-,N/A,,Clear,0,2013-05-05 09:55:00
4:15 AM,32.0,21.2,64,30.30,10.0,Calm,Calm,-,N/A,,Clear,0,2013-05-05 10:15:00
4:35 AM,30.2,23.0,75,30.30,10.0,Calm,Calm,-,N/A,,Clear,0,2013-05-05 10:35:00
4:55 AM,30.2,23.0,75,30.30,10.0,Calm,Calm,-,N/A,,Clear,0,2013-05-05 10:55:00
5:15 AM,30.2,21.2,69,30.29,10.0,Calm,Calm,-,N/A,,Clear,0,2013-05-05 11:15:00
5:35 AM,32.0,24.8,75,30.29,10.0,Calm,Calm,-,N/A,,Clear,0,2013-05-05 11:35:00
5:55 AM,32.0,24.8,75,30.29,10.0,Calm,Calm,-,N/A,,Clear,0,2013-05-05 11:55:00
6:15 AM,33.8,23.0,65,30.29,10.0,Calm,Calm,-,N/A,,Clear,0,2013-05-05 12:15:00
6:35 AM,33.8,24.8,70,30.29,10.0,Calm,Calm,-,N/A,,Clear,0,2013-05-05 12:35:00
6:55 AM,35.6,26.6,70,30.29,10.0,Calm,Calm,-,N/A,,Clear,0,2013-05-05 12:55:00
7:15 AM,37.4,26.6,65,30.29,10.0,Calm,Calm,-,N/A,,Clear,0,2013-05-05 13:15:00
7:55 AM,42.8,28.4,57,30.29,10.0,South,6.9,-,N/A,,Clear,180,2013-05-05 13:55:00
8:15 AM,44.6,26.6,49,30.29,10.0,South,4.6,-,N/A,,Clear,190,2013-05-05 14:15:00
8:35 AM,46.4,28.4,50,30.29,10.0,South,4.6,-,N/A,,Clear,180,2013-05-05 14:35:00
8:55 AM,48.2,28.4,46,30.30,8.0,South,3.5,-,N/A,,Clear,180,2013-05-05 14:55:00
9:15 AM,51.8,28.4,41,30.29,10.0,South,3.5,-,N/A,,Clear,170,2013-05-05 15:15:00
9:35 AM,53.6,28.4,38,30.29,10.0,South,3.5,-,N/A,,Clear,170,2013-05-05 15:35:00
9:55 AM,55.4,28.4,36,30.28,10.0,South,3.5,-,N/A,,Clear,190,2013-05-05 15:55:00
10:15 AM,57.2,30.2,36,30.28,10.0,SSE,3.5,-,N/A,,Clear,160,2013-05-05 16:15:00
10:35 AM,59.0,28.4,31,30.28,10.0,Calm,Calm,-,N/A,,Clear,0,2013-05-05 16:35:00
11:15 AM,60.8,30.2,31,30.27,2.5,SSE,3.5,-,N/A,,Partly Cloudy,150,2013-05-05 17:15:00
11:35 AM,62.6,30.2,30,30.27,2.0,Calm,Calm,-,N/A,,Clear,0,2013-05-05 17:35:00
12:15 PM,62.6,30.2,30,30.25,10.0,SW,3.5,-,N/A,,Clear,220,2013-05-05 18:15:00
12:35 PM,62.6,30.2,30,30.25,2.5,SSE,6.9,-,N/A,,Clear,150,2013-05-05 18:35:00
12:55 PM,64.4,32.0,30,30.24,10.0,East,6.9,-,N/A,,Clear,100,2013-05-05 18:55:00
1:15 PM,64.4,30.2,28,30.23,10.0,SSE,9.2,-,N/A,,Clear,150,2013-05-05 19:15:00
1:55 PM,64.4,30.2,28,30.21,9.0,East,5.8,-,N/A,,Clear,90,2013-05-05 19:55:00
2:15 PM,64.4,30.2,28,30.20,10.0,Calm,Calm,-,N/A,,Clear,0,2013-05-05 20:15:00
2:35 PM,66.2,30.2,26,30.19,10.0,ENE,3.5,-,N/A,,Clear,60,2013-05-05 20:35:00
2:55 PM,64.4,30.2,28,30.18,10.0,ESE,3.5,-,N/A,,Clear,110,2013-05-05 20:55:00
3:55 PM,68.0,30.2,24,30.16,10.0,ESE,8.1,-,N/A,,Clear,110,2013-05-05 21:55:00
4:15 PM,66.2,30.2,26,30.15,10.0,West,3.5,-,N/A,,Clear,270,2013-05-05 22:15:00
4:35 PM,68.0,30.2,24,30.15,10.0,Calm,Calm,-,N/A,,Clear,0,2013-05-05 22:35:00
4:55 PM,66.2,30.2,26,30.14,10.0,SSE,10.4,-,N/A,,Partly Cloudy,150,2013-05-05 22:55:00
5:15 PM,69.8,30.2,23,30.14,10.0,SE,5.8,-,N/A,,Clear,130,2013-05-05 23:15:00
5:35 PM,68.0,30.2,24,30.14,10.0,ENE,3.5,-,N/A,,Clear,70,2013-05-05 23:35:00
6:35 PM,66.2,30.2,26,30.12,10.0,Calm,Calm,-,N/A,,Clear,0,2013-05-06 00:35:00
6:55 PM,66.2,30.2,26,30.12,10.0,SE,4.6,-,N/A,,Clear,130,2013-05-06 00:55:00
7:15 PM,64.4,30.2,28,30.12,10.0,South,3.5,-,N/A,,Clear,180,2013-05-06 01:15:00
7:35 PM,64.4,28.4,26,30.12,10.0,South,4.6,-,N/A,,Clear,190,2013-05-06 01:35:00
7:55 PM,62.6,30.2,30,30.12,10.0,Calm,Calm,-,N/A,,Clear,0,2013-05-06 01:55:00
8:35 PM,53.6,32.0,44,30.11,10.0,Calm,Calm,-,N/A,,Clear,0,2013-05-06 02:35:00
8:55 PM,50.0,32.0,50,30.12,10.0,WNW,3.5,-,N/A,,Clear,290,2013-05-06 02:55:00
9:15 PM,48.2,30.2,50,30.12,10.0,WNW,3.5,-,N/A,,Clear,290,2013-05-06 03:15:00
9:35 PM,48.2,32.0,54,30.12,10.0,WNW,3.5,-,N/A,,Clear,300,2013-05-06 03:35:00
9:55 PM,48.2,32.0,54,30.12,10.0,WNW,5.8,-,N/A,,Clear,300,2013-05-06 03:55:00
10:15 PM,50.0,30.2,47,30.12,10.0,WNW,4.6,-,N/A,,Clear,300,2013-05-06 04:15:00
10:35 PM,46.4,30.2,53,30.13,10.0,South,4.6,-,N/A,,Clear,170,2013-05-06 04:35:00
10:55 PM,44.6,30.2,57,30.12,10.0,NW,4.6,-,N/A,,Clear,310,2013-05-06 04:55:00
11:15 PM,44.6,30.2,57,30.13,10.0,WNW,4.6,-,N/A,,Clear,300,2013-05-06 05:15:00
11:35 PM,42.8,30.2,61,30.12,10.0,NW,3.5,-,N/A,,Clear,310,2013-05-06 05:35:00